{"data":{"norad_id":57082,"epoch":"2026-09-19T21:12:35.288064Z","epoch_age_seconds":174167,"freshness":"STALE","line1":"1 57082U 23088AL  26262.88374176 -.00000078  00000+0  66948-5 0  9998","line2":"2 57082  43.0052  79.0955 0001728 280.9285  79.1372 15.27575702180206","mean_motion":15.27575702,"eccentricity":0.0001728,"inclination_deg":43.0052,"raan_deg":79.0955,"arg_perigee_deg":280.9285,"mean_anomaly_deg":79.1372,"bstar":6.6948e-6,"rev_number":18020,"period_min":94.267013943378,"perigee_km":481.87635064673,"apogee_km":484.24758100932,"semimajor_km":6861.198965828,"source":"CELESTRAK","updated_at":"2026-09-21T09:00:33.555077Z"}}